weather.gov     
National Weather Service

Regional Weather Roundup
NWS Homepage
This page is being discontinued on March 12, 2014.
The same data is available at this site. Please update your bookmarks.
Thank you, and we apologize for the inconvenience.
Please send an email to SR-SRH.Webmaster@noaa.gov with any concerns.


Current Version
Previous Version:    01  02  03  04  05  06  07  08  09  10  11  12  13  14  15  16  17  18  19  20  21  22  23  24  25  26  27  
[Printable]
092
ASUS41 KOKX 011905
RWROKX
REGIONAL WEATHER ROUNDUP
NATIONAL WEATHER SERVICE NEW YORK NY
300 PM EDT MON SEP 01 2014

NOTE: "FAIR" INDICATES FEW OR NO CLOUDS BELOW 12,000 FEET WITH NO
SIGNIFICANT WEATHER AND/OR OBSTRUCTIONS TO VISIBILITY.

NYZ071-072-176-178-NJZ106-104-012000-
NEW YORK CITY METRO AREA


CITY           SKY/WX    TMP DP  RH WIND       PRES   REMARKS
CENTRAL PARK   PTSUNNY   85  69  58 CALM      29.98F
LAGUARDIA APRT NOT AVBL
KENNEDY INTL   MOSUNNY   84  71  65 S10       29.97F
NEWARK/LIBERTY PTSUNNY   91  67  44 SW7       29.94F HX  94
BRNX BOT. GARD   N/A     88  68  51 W9        29.97F HX  91
TETERBORO      PTSUNNY   87  69  54 S7        29.93F HX  91
$$

NYZ177-179-078>081-012000-
LONG ISLAND NEW YORK

CITY           SKY/WX    TMP DP  RH WIND       PRES   REMARKS
FARMINGDALE    CLOUDY    82  70  66 SW8       29.97S
ISLIP          PTSUNNY   85  69  58 S12       29.95F
SHIRLEY        SUNNY     86  71  60 SW9       29.97F HX  91
WESTHAMPTON    SUNNY     84  69  60 SW9       29.98F
MONTAUK POINT    N/A     84  72  67 W3        29.97F
$$

NYZ052-065-067-012000-
HUDSON VALLEY

CITY           SKY/WX    TMP DP  RH WIND       PRES   REMARKS
WHITE PLAINS   PTSUNNY   84  69  60 CALM      29.96F
NEWBURGH       PTSUNNY   82  70  65 W9        29.98F
MONTGOMERY     CLOUDY    84  69  60 SW8       29.95F
POUGHKEEPSIE   CLOUDY    86  68  54 SW6       29.93F
ALBANY         MOSUNNY   87  63  44 W7        29.94F
$$

NJZ001-105-106-008-010-013-015-019>022-104-012000-
NEW JERSEY

CITY           SKY/WX    TMP DP  RH WIND       PRES   REMARKS
NEWARK/LIBERTY PTSUNNY   91  67  44 SW7       29.94F HX  94
TETERBORO      PTSUNNY   87  69  54 S7        29.93F HX  91
CALDWELL       PTSUNNY   87  69  54 VRB6      29.95F HX  91
MORRISTOWN     PTSUNNY   88  70  55 W8        29.96F HX  92
SOMERVILLE     PTSUNNY   88  69  53 VRB3      29.93F HX  92
LINDEN         MOCLDY    92  70  49 SW6       29.96F HX  97
SUSSEX         PTSUNNY   86  70  58 SW3       29.96F HX  90
ANDOVER          N/A     84  70  62 SW6       29.97F
TRENTON        CLOUDY    85  69  58 SW5       29.96F
MILLVILLE      PTSUNNY   86  73  65 SW5       29.97F HX  93
ATLANTIC CITY  PTSUNNY   86  73  65 SE8       29.97F HX  93
WRIGHTSTOWN    PTSUNNY   85  73  65 W8        29.95S HX  92
TOMS RIVER     MOSUNNY   90  72  55 W9        29.97F HX  96
BELMAR         MOSUNNY   86  72  62 W5        29.97S HX  92
$$

PAZ047>061-062-071-012000-
EASTERN PENNSYLVANIA

CITY           SKY/WX    TMP DP  RH WIND       PRES   REMARKS
PHILADELPHIA   MOSUNNY   88  70  55 SW10      29.96F HX  93
ALLENTOWN      PTSUNNY   88  70  55 SW12      29.96F HX  93
SCRANTON       PTSUNNY   83  67  58 S7        29.98F
$$

CTZ002-004>006-009-010-012-RIZ004-006-007-MAZ004-011-015-012000-
SOUTHERN NEW ENGLAND
 IN CT

CITY           SKY/WX    TMP DP  RH WIND       PRES   REMARKS
BRADLEY INTL   PTSUNNY   85  68  56 SW9       29.93F
HARTFORD       MOSUNNY   86  68  54 SW5       29.93F
DANBURY        PTSUNNY   83  70  64 SW9       29.98S
WTRBRY/OXFORD  PTSUNNY   84  72  65 VRB5      30.00F
BRIDGEPORT     PTSUNNY   86  72  62 SW6       29.95F HX  92
MERIDEN        PTSUNNY   84  69  60 S9        29.95S
NEW HAVEN      MOSUNNY   85  71  63 SW9       29.95F HX  90
CHESTER        FAIR      82  70  65 SW7       29.97F
GROTON         SUNNY     78  72  81 SW9       29.95F
WILLIMANTIC    CLOUDY    85  68  56 VRB5      29.95F

 IN RI

CITY           SKY/WX    TMP DP  RH WIND       PRES   REMARKS
PROVIDENCE     PTSUNNY   87  68  52 W10       29.94F HX  90
BLOCK ISLAND   MOSUNNY   79  70  73 SW9       29.97F
WESTERLY       SUNNY     82  72  71 SW9       29.96F

 IN MA

CITY           SKY/WX    TMP DP  RH WIND       PRES   REMARKS
BOSTON         PTSUNNY   80  70  71 SE13      29.93F
WORCESTER      MOSUNNY   81  66  60 W9        29.99F
WESTFIELD      MOSUNNY   88  66  48 SW9       29.93F HX  90
PROVINCETOWN   MOSUNNY   81  72  74 S10       29.95S
NANTUCKET      MOSUNNY   75  70  83 SW13      29.97F
$$

ANZ330-335-338-340-345-350-353-355-012000-
COASTAL MARINE OBSERVATIONS


STATION/POSITION TIME  SKY/WX   TEMP    WIND        PRES    VSBY  WAVE
                                AIR SEA DIR/SP/G                  HT/PER
                 (UTC)          (F)     (DEG/KT/KT) (MB)    (MI)  (FT/S)
NY HARB ENTRANCE NOT AVBL
4S FIRE IS       NOT AVBL
23SW MTP         1900                                 N/A           4/ 5
HUDSON CANYON    1900            75 74  230/  8/ 10 1015.5          4/ 6
EXECUTION ROCKS  1900            82 75  190/  8/ 12   N/A
WESTERN LI SOUND 1800            82     230/  4/  4   N/A           1/ 2
CENTRAL LI SOUND 1800            76 76  110/  4/  6   N/A           1
EASTERN LI SOUND 1800            74 71  190/  4/  6   N/A
ROBBINS REEF     1900            79     160/ 14/ 16   N/A
$$


>>>>>>>>>>>>>>>>>>>>>>>>>>>> KEY <<<<<<<<<<<<<<<<<<<<<<<<<<<
>                                                          <
>     SKY/WX - SKY CONDITION/PRESENT WEATHER               <
>     TMP    - TEMPERATURE IN FAHRENHEIT                   <
>     DP     - DEWPOINT IN FAHRENHEIT                      <
>     RH     - RELATIVE HUMIDITY IN PERCENT                <
>     WIND   - DIRECTION AND SPEED IN MPH                  <
>     PRES   - MEAN SEA LEVEL PRESSURE IN INCHES OF HG     <
>     WCI    - WIND CHILL INDEX                            <
>     VSB    - VISIBILITY IN MILES                         <
>     HX     - HEAT INDEX                                  <
>     TC     - TEMPERATURE IN CELSIUS                      <
>     VRB    - VARIABLE WIND DIRECTION                     <
>                                                          <
>>>>>>>>>>>>>>>>>>>>>>>>>>>> KEY <<<<<<<<<<<<<<<<<<<<<<<<<<<






U.S. Dept. of Commerce
NOAA National Weather Service
1325 East West Highway
Silver Spring, MD 20910
E-mail: w-nws.webmaster@noaa.gov
Page last modified: May 16, 2007
NATIONAL WEATHER SERVICE: for Safety, for Work, for Fun - FOR LIFE